Location: Munkebjergskolens Observatorium
(55.3864°N, 10.3987°E)
Time: 11:26:29
(UTC+01:00)

COSMOS 2251 DEB - Pass Details

Date: 13 December 2023
Orbit: 609 x 851 km, 74.0° (Epoch: 02 March)

Event Time Altitude Azimuth Distance (km) Brightness Sun altitude
Exits shadow 06:40:30 - 338° (NNW) 2,573 ? -15.0°
Reaches altitude 10° 06:40:47 10° 339° (NNW) 2,471 ? -15.0°
Maximum altitude 06:46:13 43° 51° (NE) 1,189 ? -14.3°
Drops below altitude 10° 06:51:40 10° 122° (ESE) 2,485 ? -13.5°
Sets 06:54:17 0° 129° (SE) 3,425 ? -13.2°
